Погода Теплый Ключ

Погода Теплый Ключ : погода сейчас, прогноз погоды и архив. Всё, что Вы хотите узнать о погоде Теплый Ключ!

Хотите узнать прогноз погоды Теплый Ключ? Тогда Вам сюда: Погода Теплый Ключ

Поиск расширенной информации на нашем сайте:

Полезная информация: Самая актуальная информация колодец под ключ цена в Орехово-Зуевском районе тут.

Другие новости

Новости СМИ2

Главная страница сайта

Новости сайта

03.07.2017

Напоминаем, что на нашем специализированном сайте Метеоцентр.Азия вы можете получить высокодетализированные автоматические прогнозы погоды по пунктам России, СНГ и мира в авиационном формате (включающие направление и скорость ветра, видимость, явления погоды, количество и форму облачности, нижнюю и верхнюю границу облачности).

Рекомендуем: Реплика наручных часов купить копии реплики мужских наручных.

Погода Теплый Ключ - сегодня

Время (UTC), дата Ветер
(°,м/с) 
Видим.   Явления Облачность Т
(°С)
Тd
(°С)
f(%) Тe
(°С)
Pmin
(гПа)
dP
(гПа)
Po
(мм)
O2
(г/м3)
Тmin Tmax R s Состояние
почвы
18 22.07.17 тихо ()   н/о    н/о 
+6.9 +6.4 97 +7  1006.3  0.1  729  285           
21 22.07.17 140 (ЮВ) 20000 м    10/10 630 м кучево-дожд. 
[Cb calv]
+8.5 +7.6 94 +10  1005.8  -0.3  729  283  +5.6    0.8    влажная 
00 23.07.17 280 (З) н/о    н/о 
+10.6 +8.4 86 +12  1005.6  0.1  729  281           
03 23.07.17 280 (З) 2{10}  н/о    н/о 
+11.5 +8.9 84 +12  1005.5  729  280           
06 23.07.17 220 (ЮЗ) н/о    н/о 
+15.7 +6.8 55 +16  1005.4  0.4  729  277           
09 23.07.17 230 (ЮЗ) н/о    н/о 
+14.9 +8 63 +16  1005.8  0.3  729  277    +15.7       
12 23.07.17 120 (ЮВ) н/о    н/о 
+10.7 +7.6 81 +12  1007.3  0.9  730  282           
15 23.07.17 080 (В) н/о    н/о 
+3.7 +3.3 97 +3  1009.2  0.9  731  290           
18 23.07.17 070 (В) н/о    н/о 
+1.1 +0.9 99 +2  1009.8  0.3  731  293           
21 23.07.17 100 (В) 20000 м    9/4 2000 м средняя, верхняя 
[Ac und|Ci]
+7.9 +5.6 85 +9  1009.3  0.3  731  285  +0        сухая 
00 24.07.17 150 (ЮВ) 20000 м    8/4 2000 м средняя, верхняя 
[Ac As|Ci fib]
+17.3 +8.4 56 +19  1008.3  0.2  731  276           
03 24.07.17 310 (СЗ) 20000 м    10/10 840 м кучево-дожд. 
[Cb calv]
+17.7 +8.1 53 +18  1008  -0.3  731  275           
06 24.07.17 030 (СВ) 20000 м    4/4 600 м кучево-дожд. 
[Cb calv]
+19.6 +6.4 42 +21  1007.3  -0.3  731  274           
09 24.07.17 320 (СЗ) 20000 м    4/4 600 м кучево-дожд. 
[Cb calv]
+19.4 +6.4 43 +20  1007.2  -0.2  731  274    +19.9       
12 24.07.17 250 (З) н/о    н/о 
+12.5 +9.6 82 +15  1008.6  0.6  731  280           
15 24.07.17 100 (В) н/о    н/о 
+6.7 +5.9 95 +8  1009.5  0.1  731  286           
18 24.07.17 050 (СВ) н/о    н/о 
+2.7 +2.3 97 +3  1010.4  0.4  731  291           
21 24.07.17 090 (В) 20000 м    9/8 930 м кучево-дожд., средняя 
[Cb calv|Ac lent]
+8.4 +7.3 93 +9  1010.3  0.7  732  285  +2.3        сухая 
00 25.07.17 080 (В) 20000 м  слаб. ливневой дождь  10/8 840 м кучево-дожд., средняя 
[Cb calv|Ac und]
+13.1 +11.2 88 +17  1010.4  0.7  732  279           
03 25.07.17 350 (С) 20000 м  слаб. ливневой дождь  10/8 1000 м кучево-дожд., средняя 
[Cb calv|Ac As]
+14.7 +11 78 +19  1008.9  -1.4  731  278           
06 25.07.17 330 (СЗ) 20000 м  в посл. час ливневой дождь  10/4 1000 м кучево-дожд., средняя 
[Cb calv|Ac und]
+17.6 +11.8 69 +22  1007.1  -1.4  730  274           
09 25.07.17 320 (СЗ) 20000 м    4/4 2000 м средняя 
[Ac As]
+19.4 +8.9 51 +20  1005.5  -1.4  729  273    +19.8  0.3     
12 25.07.17 080 (В) н/о    н/о 
+13.9 +11.7 87 +19  1006.2  0.1  729  277           
15 25.07.17 070 (В) н/о    н/о 
+8.6 +8.1 97 +10  1006.4  -0.4  729  283           
18 25.07.17 тихо ()   н/о    н/о 
+4 +3.7 98 +4  1006.4  -0.6  729  289           
Время (UTC), дата Ветер
(°,м/с) 
Видим.   Явления Облачность Т
(°С)
Тd
(°С)
f(%) Тe
(°С)
Pmin
(гПа)
dP
(гПа)
Po
(мм)
O2
(г/м3)
Тmin Tmax R s Состояние
почвы

Для получения пояснительной информации подведите курсор к названию столбца.

ПОГОДА Теплый Ключ - архив

Всё, что Вы хотите узнать о погоде Теплый Ключ - удобно и подробно!

Выберите нужную дату (начиная с 1 января 2015* года) и нажмите кнопку "Найти".
Будут отображены архивные сводки погоды по пункту Теплый Ключ, начиная с указанной даты.


Отображать данные в формате CSV (для использования в таблицах Excel)


Внимание! Наш архив погоды предназначен исключительно для личного некоммерческого использования в познавательных целях. Если Вам необходимы официальные справки о состоянии погоды (для производственных, юридических, коммерческих и т.п. целей), обращайтесь в органы Росгидромета.

*Примечание: данная дата относится к архиву по метеостанциям СССР (Россия, СНГ, Балтия).
Архив по метеостанциям Зарубежной Европы и Азии (кроме Китая) хранится 10 дней, по другим регионам земного шара (Китай, Африка, Америка, Австралия, Океания) - 1 день.

Теплый Ключ - район местоположения метеостанции


Название, широта, долгота, высота метеостанции:
Теплый Ключ 62.8°ш. 136.8°д. 289 м над ур. моря [Российская Федерация]

Дополнительная информация

В oтличие oт бoльшинства пoгoдных сайтoв мы публикуем пoдрoбную метеoинфoрмацию в детальнoм прoфессиoнальнoм фoрмате.

Характеристики температуры и влажнoсти вoздуха измеряются на высoте 2 м в тени вдали oт зданий и деревьев.
Скoрoсть ветра измеряется на высoте 10 м (на урoвне рoста челoвека скoрoсть ветра ниже в 1.5-2 раза). Если метеoстанция нахoдится в гoрoде или в лесу, тo скoрoсть ветра занижена на 2-4 м/с пo сравнению с oткрытым местoм. Скoрoсть ветра над акватoриями крупных рек и oзёр, а также на вершинах хoлмoв на 2-5 м/с выше, чем в oбычных услoвиях.
Атмoсфернoе давление в разных тoчках местнoсти мoжет значительнo oтличаться oт давления на метеoстанции, в зависимoсти oт услoвий рельефа (при пoдъёме на 10 м давление пoнижается примернo на 1 мм рт.ст.).